period_start,C,m1,H,J0,J1,J2,J3,J4,J5,JA,JB,JC,JD,JJ,JK,JN,#
2014-09-03 00:01:22,0.01,0.37,0.00,23.33,27.55,29.90,9.45,38.14,1002.46,2039.60,3334.67,3223.78,3485.00,500.05,489.25,32.02,0000 0000 0000 0000 000000
2014-09-03 00:06:23,-0.00,0.37,0.00,23.33,27.55,29.93,9.46,37.90,1002.46,2039.25,3334.02,3223.06,3484.56,500.31,489.51,32.06,0000 0000 0000 0000 000000
2014-09-03 00:11:24,0.02,0.37,0.00,23.34,27.57,29.94,9.40,37.88,1002.46,2039.26,3333.80,3223.00,3484.02,500.24,489.39,32.11,0000 0000 0000 0000 000000
2014-09-03 00:16:25,0.01,0.37,0.00,23.35,27.57,29.94,9.39,37.90,1002.46,2039.09,3333.08,3222.65,3483.93,499.69,488.89,32.15,0000 0000 0000 0000 000000
2014-09-03 00:21:26,0.03,0.37,0.00,23.37,27.59,29.95,9.47,38.00,1002.42,2039.05,3332.67,3222.04,3483.20,500.13,489.09,32.19,0000 0000 0000 0000 000000
2014-09-03 00:26:27,0.01,0.37,0.00,23.39,27.60,29.96,9.44,37.94,1002.19,2039.04,3332.02,3221.91,3482.97,499.76,488.85,32.23,0000 0000 0000 0000 000000
2014-09-03 00:31:28,0.05,0.37,0.00,23.40,27.61,29.98,9.45,37.93,1002.00,2039.02,3331.53,3221.18,3482.25,499.82,488.73,32.27,0000 0000 0000 0000 000000
2014-09-03 00:36:29,0.00,0.37,0.00,23.41,27.62,29.99,9.46,37.83,1002.12,2039.01,3330.96,3220.98,3481.95,499.83,488.80,32.31,0000 0000 0000 0000 000000
2014-09-03 00:41:30,0.05,0.38,0.00,23.42,27.64,29.99,9.35,37.88,1002.06,2039.01,3330.16,3220.54,3481.29,499.83,488.76,32.36,0000 0000 0000 0000 000000
2014-09-03 00:46:32,0.01,0.38,0.00,23.44,27.65,30.01,9.37,37.92,1001.99,2039.00,3329.78,3220.01,3480.95,499.61,488.58,32.40,0000 0000 0000 0000 000000
2014-09-03 00:51:33,0.04,0.38,0.00,23.47,27.66,30.03,9.43,37.96,1001.97,2039.00,3329.03,3219.70,3480.20,499.93,488.78,32.44,0000 0000 0000 0000 000000
2014-09-03 00:56:34,0.03,0.38,0.00,23.49,27.67,30.04,9.40,37.86,1001.97,2039.00,3328.32,3219.02,3479.91,499.94,488.72,32.48,0000 0000 0000 0000 000000
2014-09-03 01:01:35,0.02,0.38,0.00,23.49,27.69,30.05,9.46,37.92,1001.97,2038.99,3327.82,3218.78,3479.10,500.02,488.65,32.52,0000 0000 0000 0000 000000
2014-09-03 01:06:36,0.04,0.38,0.00,23.50,27.70,30.05,9.47,37.91,1001.97,2038.98,3327.06,3218.06,3478.70,500.18,488.86,32.56,0000 0000 0000 0000 000000
2014-09-03 01:11:37,0.02,0.38,0.00,23.52,27.72,30.07,9.43,38.02,1001.96,2038.97,3326.71,3217.84,3478.03,499.87,488.65,32.60,0000 0000 0000 0000 000000
2014-09-03 01:16:38,0.03,0.39,0.00,23.55,27.73,30.09,9.46,37.97,1001.86,2038.95,3326.04,3217.12,3477.76,500.39,488.86,32.65,0000 0000 0000 0000 000000
2014-09-03 01:21:39,0.01,0.39,0.00,23.57,27.75,30.09,9.38,37.77,1001.53,2038.78,3325.42,3216.98,3477.04,500.21,488.53,32.69,0000 0000 0000 0000 000000
2014-09-03 01:26:40,0.01,0.39,0.00,23.59,27.77,30.11,9.41,37.88,1001.49,2038.69,3324.92,3216.32,3476.78,499.73,488.15,32.73,0000 0000 0000 0000 000000
2014-09-03 01:31:42,0.00,0.39,0.00,23.59,27.78,30.13,9.43,37.85,1001.55,2038.50,3324.19,3215.99,3476.09,499.93,488.42,32.77,0000 0000 0000 0000 000000
2014-09-03 01:36:43,0.04,0.39,0.00,23.62,27.80,30.14,9.35,38.00,1001.88,2038.28,3323.51,3215.49,3475.65,499.53,487.92,32.81,0000 0000 0000 0000 000000
2014-09-03 01:41:43,-0.00,0.39,0.00,23.62,27.81,30.16,9.40,37.82,1001.94,2038.09,3322.83,3215.01,3475.01,500.13,488.59,32.85,0000 0000 0000 0000 000000
2014-09-03 01:46:44,0.04,0.39,0.00,23.67,27.82,30.16,9.43,37.76,1001.87,2038.04,3322.04,3214.47,3474.38,500.12,488.48,32.90,0000 0000 0000 0000 000000
2014-09-03 01:51:45,0.02,0.39,0.00,23.68,27.85,30.18,9.42,37.78,1001.71,2038.02,3321.25,3214.01,3473.95,500.13,488.40,32.94,0000 0000 0000 0000 000000
2014-09-03 01:56:46,0.05,0.39,0.00,23.69,27.86,30.20,9.40,37.83,1001.71,2038.02,3320.65,3213.55,3473.16,500.21,488.46,32.98,0000 0000 0000 0000 000000
2014-09-03 02:01:47,0.02,0.40,0.00,23.73,27.87,30.22,9.45,37.97,1001.86,2038.00,3319.94,3213.01,3472.82,500.27,488.58,33.02,0000 0000 0000 0000 000000
2014-09-03 02:06:48,0.05,0.40,0.00,23.77,27.90,30.23,9.37,37.72,1001.94,2038.00,3319.09,3212.37,3472.05,499.98,488.29,33.06,0000 0000 0000 0000 000000
2014-09-03 02:11:50,0.03,0.40,0.00,23.77,27.91,30.24,9.40,37.79,1001.95,2038.00,3318.31,3211.97,3471.42,499.98,488.23,33.10,0000 0000 0000 0000 000000
2014-09-03 02:16:51,0.02,0.40,0.00,23.77,27.93,30.26,9.46,38.01,1001.85,2037.99,3317.87,3211.49,3471.00,500.25,488.35,33.15,0000 0000 0000 0000 000000
2014-09-03 02:21:52,0.04,0.40,0.00,23.78,27.95,30.28,9.34,37.90,1001.75,2037.99,3317.00,3211.00,3470.47,499.92,488.14,33.19,0000 0000 0000 0000 000000
2014-09-03 02:26:53,0.04,0.40,0.00,23.77,27.96,30.29,9.38,37.82,1001.63,2037.98,3316.22,3210.45,3469.88,499.85,487.81,33.23,0000 0000 0000 0000 000000
2014-09-03 02:31:54,0.02,0.41,0.00,23.82,27.98,30.31,9.30,37.88,1001.59,2037.93,3315.65,3209.97,3469.06,499.33,487.18,33.27,0000 0000 0000 0000 000000
2014-09-03 02:36:56,0.02,0.41,0.00,23.86,28.00,30.32,9.42,37.83,1001.53,2037.74,3314.85,3209.29,3468.57,499.96,487.98,33.31,0000 0000 0000 0000 000000
2014-09-03 02:41:57,-0.02,0.41,0.00,23.88,28.02,30.35,9.41,37.88,1001.51,2037.34,3314.02,3208.92,3467.98,500.14,488.06,33.35,0000 0000 0000 0000 000000
2014-09-03 02:46:58,0.05,0.41,0.00,23.91,28.03,30.37,9.44,37.98,1001.49,2037.14,3313.26,3208.11,3467.25,500.39,488.08,33.40,0000 0000 0000 0000 000000
2014-09-03 02:51:59,0.01,0.41,0.00,23.94,28.05,30.38,9.42,37.93,1001.48,2037.13,3312.79,3207.97,3466.97,500.16,487.80,33.44,0000 0000 0000 0000 000000
2014-09-03 02:57:00,0.04,0.41,0.00,23.95,28.07,30.40,9.36,37.98,1001.48,2037.06,3312.00,3207.20,3466.18,499.79,487.59,33.48,0000 0000 0000 0000 000000
2014-09-03 03:02:01,0.03,0.41,0.00,23.97,28.09,30.42,9.40,38.05,1001.48,2037.01,3311.19,3206.88,3465.67,499.39,487.18,33.52,0000 0000 0000 0000 000000
2014-09-03 03:07:02,0.04,0.41,0.00,24.00,28.10,30.43,9.38,38.08,1001.48,2037.00,3310.54,3206.10,3465.02,499.73,487.46,33.56,0000 0000 0000 0000 000000
2014-09-03 03:12:04,0.02,0.41,0.00,24.01,28.12,30.44,9.35,38.02,1001.47,2037.00,3309.93,3205.90,3464.47,499.50,487.21,33.60,0000 0000 0000 0000 000000
2014-09-03 03:17:05,0.04,0.42,0.00,24.04,28.15,30.47,9.29,37.83,1001.45,2037.00,3309.11,3205.13,3463.98,499.99,487.57,33.65,0000 0000 0000 0000 000000
2014-09-03 03:22:06,0.04,0.42,0.00,24.06,28.16,30.49,9.40,38.02,1001.47,2037.00,3308.37,3204.76,3463.18,499.71,487.43,33.69,0000 0000 0000 0000 000000
2014-09-03 03:27:06,0.03,0.42,0.00,24.09,28.17,30.50,9.30,37.83,1001.48,2036.98,3307.71,3204.06,3462.75,499.72,487.24,33.73,0000 0000 0000 0000 000000
2014-09-03 03:32:08,0.04,0.42,0.00,24.11,28.20,30.52,9.40,38.07,1001.48,2036.96,3306.89,3203.59,3462.01,499.73,487.35,33.77,0000 0000 0000 0000 000000
2014-09-03 03:37:09,0.04,0.42,0.00,24.15,28.21,30.54,9.41,38.02,1001.46,2036.97,3306.07,3203.01,3461.32,500.15,487.50,33.81,0000 0000 0000 0000 000000
2014-09-03 03:42:10,0.01,0.42,0.00,24.16,28.23,30.56,9.41,37.82,1001.39,2036.84,3305.40,3202.58,3460.92,500.36,487.70,33.85,0000 0000 0000 0000 000000
2014-09-03 03:47:11,0.01,0.43,0.00,24.18,28.25,30.58,9.38,37.77,1001.33,2036.52,3304.77,3202.01,3460.11,500.02,487.30,33.90,0000 0000 0000 0000 000000
2014-09-03 03:52:12,0.01,0.43,0.00,24.23,28.27,30.60,9.36,37.56,1001.02,2036.18,3304.02,3201.36,3459.66,500.12,487.18,33.94,0000 0000 0000 0000 000000
2014-09-03 03:57:13,0.02,0.43,0.00,24.24,28.30,30.62,9.42,38.70,1000.99,2036.05,3303.21,3200.99,3459.02,500.28,487.06,33.98,0000 0000 0000 0000 000000
2014-09-03 04:02:13,0.06,0.43,0.00,24.26,28.32,30.64,9.41,38.77,1000.99,2036.04,3302.52,3200.32,3458.47,500.63,487.37,34.02,0000 0000 0000 0000 000000
2014-09-03 04:07:15,0.01,0.43,0.00,24.31,28.34,30.66,9.41,38.71,1000.99,2036.01,3301.75,3199.85,3457.93,500.37,487.24,34.06,0000 0000 0000 0000 000000
2014-09-03 04:12:16,0.05,0.43,0.00,24.32,28.36,30.68,9.50,38.72,1000.99,2036.00,3301.09,3199.10,3457.12,500.30,487.17,34.10,0000 0000 0000 0000 000000
2014-09-03 04:17:20,0.01,0.43,0.00,24.33,28.38,30.71,9.33,38.54,1000.98,2035.99,3300.82,3198.99,3456.90,499.67,486.59,34.14,0000 0000 0000 0000 000000
2014-09-03 04:22:21,0.05,0.43,0.00,24.37,28.40,30.72,9.31,38.72,1000.97,2035.99,3300.05,3198.41,3456.11,499.79,486.70,34.19,0000 0000 0000 0000 000000
2014-09-03 04:27:22,0.03,0.44,0.00,24.41,28.43,30.74,9.41,38.73,1000.95,2035.95,3299.21,3198.00,3455.63,499.93,486.68,34.23,0000 0000 0000 0000 000000
2014-09-03 04:32:23,0.01,0.44,0.00,24.46,28.45,30.77,9.30,38.73,1000.88,2035.82,3298.78,3197.35,3455.02,499.48,486.14,34.27,0000 0000 0000 0000 000000
2014-09-03 04:37:24,-0.02,0.44,0.00,24.47,28.47,30.79,9.44,38.83,1000.70,2035.27,3298.02,3196.90,3454.41,500.55,487.01,34.31,0000 0000 0000 0000 000000
2014-09-03 04:42:25,0.03,0.44,0.00,24.50,28.50,30.81,9.41,38.87,1000.57,2035.02,3297.18,3196.10,3453.89,500.11,486.40,34.35,0000 0000 0000 0000 000000
2014-09-03 04:47:27,0.02,0.44,0.00,24.52,28.52,30.83,9.33,39.07,1000.53,2035.00,3296.85,3195.86,3453.08,500.01,486.25,34.39,0000 0000 0000 0000 000000
2014-09-03 04:52:28,0.05,0.44,0.00,24.55,28.54,30.86,9.31,38.80,1000.51,2035.00,3296.07,3195.09,3452.58,499.60,485.95,34.44,0000 0000 0000 0000 000000
2014-09-03 04:57:29,0.03,0.44,0.00,24.59,28.56,30.88,9.40,39.02,1000.51,2034.99,3295.30,3194.73,3452.01,500.09,486.29,34.48,0000 0000 0000 0000 000000
2014-09-03 05:02:30,0.04,0.44,0.00,24.59,28.59,30.90,9.41,38.98,1000.50,2034.96,3294.66,3194.06,3451.38,500.33,486.47,34.52,0000 0000 0000 0000 000000
2014-09-03 05:07:31,0.02,0.44,0.00,24.61,28.61,30.92,9.37,38.69,1000.51,2034.90,3294.00,3193.75,3450.97,500.05,486.23,34.56,0000 0000 0000 0000 000000
2014-09-03 05:12:32,-0.02,0.44,0.00,24.65,28.63,30.94,9.29,38.82,1000.50,2034.42,3293.19,3193.02,3450.16,500.26,486.33,34.60,0000 0000 0000 0000 000000
2014-09-03 05:17:33,0.01,0.44,0.00,24.67,28.65,30.97,9.34,38.77,1000.50,2034.10,3292.77,3192.58,3449.70,500.07,486.09,34.64,0000 0000 0000 0000 000000
2014-09-03 05:22:34,0.02,0.45,0.00,24.68,28.67,31.00,9.35,39.08,1000.50,2034.01,3292.06,3192.02,3449.03,500.04,486.02,34.68,0000 0000 0000 0000 000000
2014-09-03 05:27:35,0.03,0.45,0.00,24.72,28.70,31.02,9.36,39.05,1000.50,2034.00,3291.56,3191.77,3448.68,499.92,485.92,34.73,0000 0000 0000 0000 000000
2014-09-03 05:32:36,0.03,0.45,0.00,24.74,28.72,31.05,9.36,38.86,1000.50,2034.00,3290.75,3191.04,3448.00,500.11,486.13,34.77,0000 0000 0000 0000 000000
2014-09-03 05:37:38,0.05,0.45,0.00,24.74,28.75,31.07,9.37,38.70,1000.47,2033.99,3290.02,3190.38,3447.21,500.06,486.15,34.81,0000 0000 0000 0000 000000
2014-09-03 05:42:39,0.02,0.45,0.00,24.77,28.77,31.09,9.35,38.64,1000.43,2033.95,3289.35,3190.00,3446.84,499.95,485.84,34.85,0000 0000 0000 0000 000000
2014-09-03 05:47:40,0.02,0.45,0.00,24.80,28.80,31.12,9.28,38.56,1000.23,2033.86,3288.87,3189.46,3446.10,499.71,485.37,34.89,0000 0000 0000 0000 000000
2014-09-03 05:52:41,-0.03,0.45,0.00,24.82,28.82,31.14,9.33,38.63,1000.16,2033.42,3288.12,3189.02,3445.77,499.81,485.50,34.93,0000 0000 0000 0000 000000
2014-09-03 07:05:05,-3333.30,0.00,0.00,23.16,27.96,25.62,8.12,35.35,999.43,1836.18,3132.00,3000.85,3263.71,435.38,425.07,0.00,0000 0000 0000 0000 000000
2014-09-03 07:10:05,0.00,0.00,0.00,23.01,27.77,26.87,9.27,39.49,999.53,2037.98,3472.15,3328.84,3620.78,499.86,488.24,0.04,0000 0000 0000 0000 000000
2014-09-03 07:15:07,0.01,0.00,0.00,22.92,27.61,27.55,9.37,39.02,999.53,2037.98,3471.03,3328.10,3619.99,500.20,488.67,0.09,0000 0000 0000 0000 000000
2014-09-03 07:20:08,0.00,0.00,0.00,23.11,27.50,28.33,9.36,38.77,999.54,2038.03,3470.95,3328.47,3619.92,500.24,488.27,0.13,0000 0000 0000 0000 000000
2014-09-03 07:25:09,0.04,0.00,0.00,23.79,27.42,28.76,9.28,38.42,999.55,2038.68,3470.38,3328.79,3619.41,499.44,486.57,0.17,0000 0000 0000 0000 000000
2014-09-03 07:30:10,0.05,0.01,0.00,24.15,27.38,28.99,9.33,38.23,999.60,2038.98,3469.95,3328.29,3619.01,500.23,486.81,0.21,0000 0000 0000 0000 000000
2014-09-03 07:35:12,0.03,0.01,0.00,24.08,27.37,29.18,9.37,38.16,999.56,2038.99,3469.15,3328.01,3618.66,500.21,486.92,0.25,0000 0000 0000 0000 000000
2014-09-03 07:40:13,0.02,0.01,0.00,24.01,27.38,29.36,9.33,38.21,999.53,2039.00,3468.61,3327.99,3618.02,499.96,486.73,0.30,0000 0000 0000 0000 000000
2014-09-03 07:45:15,0.04,0.01,0.00,24.02,27.41,29.52,9.36,38.11,999.53,2039.02,3468.00,3327.49,3617.27,499.98,486.68,0.34,0000 0000 0000 0000 000000
2014-09-03 07:50:16,0.03,0.01,0.00,24.07,27.44,29.65,9.32,38.06,999.53,2039.02,3467.16,3327.03,3616.80,499.90,486.76,0.38,0000 0000 0000 0000 000000
2014-09-03 07:55:17,0.03,0.01,0.00,24.13,27.49,29.75,9.31,38.06,999.53,2039.02,3466.39,3326.84,3616.01,499.62,486.23,0.42,0000 0000 0000 0000 000000
2014-09-03 08:00:19,0.05,0.02,0.00,24.19,27.54,29.86,9.20,37.97,999.53,2039.00,3465.58,3326.08,3615.23,499.35,486.04,0.46,0000 0000 0000 0000 000000
2014-09-03 08:05:20,0.04,0.02,0.00,24.26,27.59,29.94,9.50,37.92,999.53,2039.00,3464.76,3325.79,3614.45,500.49,486.60,0.51,0000 0000 0000 0000 000000
2014-09-03 08:10:21,0.05,0.02,0.00,24.32,27.64,30.02,9.37,37.93,999.53,2038.99,3463.79,3325.02,3613.57,500.34,486.54,0.55,0000 0000 0000 0000 000000
2014-09-03 08:15:22,0.05,0.02,0.00,24.38,27.70,30.10,9.21,38.01,999.53,2038.97,3462.74,3324.21,3612.68,499.69,485.81,0.59,0000 0000 0000 0000 000000
2014-09-03 08:20:24,0.02,0.02,0.00,24.44,27.76,30.18,9.23,38.11,999.47,2038.75,3461.63,3323.53,3611.67,499.60,485.45,0.63,0000 0000 0000 0000 000000
2014-09-03 08:25:25,-0.02,0.02,0.00,24.47,27.82,30.24,9.25,37.82,999.38,2038.14,3460.58,3322.84,3610.75,499.71,485.81,0.67,0000 0000 0000 0000 000000
2014-09-03 08:30:26,0.06,0.02,0.00,24.51,27.88,30.31,9.31,37.77,999.25,2038.00,3459.50,3321.96,3609.69,499.65,485.57,0.71,0000 0000 0000 0000 000000
2014-09-03 08:35:27,0.05,0.03,0.00,24.55,27.94,30.38,9.35,37.66,999.10,2037.99,3458.49,3321.11,3608.77,499.59,485.21,0.76,0000 0000 0000 0000 000000
2014-09-03 08:40:29,0.04,0.03,0.00,24.60,28.00,30.44,9.32,37.84,999.04,2037.93,3457.56,3320.35,3607.86,500.23,485.68,0.80,0000 0000 0000 0000 000000
2014-09-03 08:45:30,-0.03,0.03,0.00,24.62,28.06,30.50,9.25,37.83,999.04,2037.36,3456.67,3319.80,3606.92,499.70,485.06,0.84,0000 0000 0000 0000 000000
2014-09-03 08:50:31,0.03,0.03,0.00,24.66,28.12,30.56,9.32,37.67,999.02,2037.02,3455.65,3318.97,3605.97,500.18,485.59,0.88,0000 0000 0000 0000 000000
2014-09-03 08:55:32,0.05,0.03,0.00,24.70,28.17,30.62,9.36,37.63,999.03,2037.00,3454.78,3318.14,3605.08,500.09,485.39,0.92,0000 0000 0000 0000 000000
2014-09-03 09:00:33,0.05,0.03,0.00,24.75,28.22,30.67,9.22,37.50,998.87,2036.96,3453.87,3317.42,3604.18,499.68,484.94,0.97,0000 0000 0000 0000 000000
2014-09-03 09:05:35,-0.03,0.03,0.00,24.75,28.28,30.72,9.44,37.62,998.59,2036.58,3452.99,3316.86,3603.25,500.60,485.61,1.01,0000 0000 0000 0000 000000
2014-09-03 09:10:36,0.02,0.03,0.00,24.76,28.33,30.76,9.40,37.56,998.57,2036.05,3452.08,3316.05,3602.44,500.34,485.32,1.05,0000 0000 0000 0000 000000
2014-09-03 09:15:37,0.06,0.04,0.00,24.79,28.38,30.81,9.36,37.45,998.62,2036.00,3451.09,3315.21,3601.41,500.17,485.15,1.09,0000 0000 0000 0000 000000
2014-09-03 09:20:38,0.04,0.04,0.00,24.83,28.43,30.87,9.41,37.41,998.58,2036.00,3450.19,3314.70,3600.63,500.33,485.29,1.13,0000 0000 0000 0000 000000
2014-09-03 09:25:39,0.02,0.04,0.00,24.85,28.48,30.91,9.31,37.40,998.56,2035.85,3449.20,3313.91,3599.68,500.08,484.88,1.17,0000 0000 0000 0000 000000
2014-09-03 09:30:40,0.00,0.04,0.00,24.85,28.53,30.95,9.31,37.36,998.55,2035.40,3448.26,3313.13,3598.87,500.17,484.82,1.22,0000 0000 0000 0000 000000
2014-09-03 09:35:41,0.03,0.04,0.00,24.86,28.57,31.00,9.36,37.55,998.55,2035.03,3447.30,3312.49,3598.04,499.54,484.41,1.26,0000 0000 0000 0000 000000
2014-09-03 09:40:43,0.03,0.04,0.00,24.87,28.61,31.03,9.33,37.40,998.31,2035.01,3446.44,3311.96,3597.18,500.07,484.90,1.30,0000 0000 0000 0000 000000
2014-09-03 09:45:43,0.06,0.04,0.00,24.87,28.66,31.07,9.35,37.33,998.14,2034.99,3445.47,3311.13,3596.41,499.83,484.45,1.34,0000 0000 0000 0000 000000
2014-09-03 09:50:45,0.05,0.05,0.00,24.87,28.70,31.11,9.26,37.35,998.07,2034.96,3444.60,3310.33,3595.56,499.79,484.32,1.38,0000 0000 0000 0000 000000
2014-09-03 09:55:46,-0.01,0.05,0.00,24.89,28.73,31.14,9.33,37.27,998.06,2034.70,3443.71,3309.86,3594.78,500.05,484.55,1.43,0000 0000 0000 0000 000000
2014-09-03 10:00:47,-0.00,0.05,0.00,24.91,28.77,31.16,9.26,37.15,998.05,2034.19,3442.96,3309.07,3594.02,499.94,484.49,1.47,0000 0000 0000 0000 000000
2014-09-03 10:05:48,0.04,0.05,0.00,24.92,28.80,31.20,9.16,37.18,997.85,2034.03,3442.13,3308.60,3593.24,499.49,483.85,1.51,0000 0000 0000 0000 000000
2014-09-03 10:10:50,0.04,0.05,0.00,24.92,28.83,31.22,9.30,37.21,997.83,2034.00,3441.34,3307.99,3592.52,499.87,484.21,1.55,0000 0000 0000 0000 000000
2014-09-03 10:15:51,0.05,0.05,0.00,24.92,28.86,31.25,9.25,37.18,997.78,2033.99,3440.53,3307.22,3591.82,499.65,483.98,1.59,0000 0000 0000 0000 000000
2014-09-03 10:20:52,0.02,0.05,0.00,24.94,28.89,31.27,9.30,37.24,997.65,2033.97,3439.91,3306.91,3591.07,500.02,483.96,1.63,0000 0000 0000 0000 000000
2014-09-03 10:25:53,0.04,0.06,0.00,24.95,28.92,31.31,9.35,37.33,997.64,2033.86,3439.07,3306.12,3590.40,500.08,484.31,1.68,0000 0000 0000 0000 000000
2014-09-03 10:30:55,-0.02,0.05,0.00,24.95,28.95,31.32,9.30,37.44,997.62,2033.33,3438.24,3305.63,3589.69,499.88,484.00,1.72,0000 0000 0000 0000 000000
2014-09-03 10:35:56,0.01,0.06,0.00,24.92,28.98,31.35,9.31,37.38,997.60,2033.07,3437.46,3305.01,3589.01,499.62,483.85,1.76,0000 0000 0000 0000 000000
2014-09-03 10:40:57,0.05,0.06,0.00,24.96,29.00,31.36,9.30,37.27,997.59,2033.02,3436.69,3304.49,3588.30,500.12,484.39,1.80,0000 0000 0000 0000 000000
2014-09-03 10:45:58,0.01,0.06,0.00,24.98,29.02,31.39,9.37,37.45,997.57,2033.00,3436.02,3304.01,3587.81,500.16,484.40,1.84,0000 0000 0000 0000 000000
2014-09-03 10:51:00,0.05,0.06,0.00,24.98,29.05,31.41,9.28,37.38,997.57,2033.00,3435.32,3303.52,3587.07,500.11,484.26,1.89,0000 0000 0000 0000 000000
2014-09-03 10:56:01,0.03,0.06,0.00,24.98,29.07,31.43,9.26,37.48,997.57,2033.00,3434.57,3302.98,3586.52,500.26,484.33,1.93,0000 0000 0000 0000 000000
2014-09-03 11:01:02,0.03,0.06,0.00,24.96,29.09,31.44,9.25,37.26,997.55,2032.99,3433.88,3302.24,3585.91,499.69,483.90,1.97,0000 0000 0000 0000 000000
2014-09-03 11:06:03,0.02,0.06,0.00,24.96,29.11,31.47,9.27,37.18,997.49,2032.94,3433.05,3301.97,3585.13,500.47,484.44,2.01,0000 0000 0000 0000 000000
2014-09-03 11:11:04,0.04,0.07,0.00,24.98,29.12,31.48,9.36,37.30,997.51,2032.88,3432.42,3301.27,3584.79,499.97,484.14,2.05,0000 0000 0000 0000 000000
2014-09-03 11:16:06,0.01,0.07,0.00,25.00,29.15,31.50,9.29,37.13,997.54,2032.82,3431.93,3300.99,3584.04,499.87,484.01,2.09,0000 0000 0000 0000 000000
2014-09-03 11:21:07,0.01,0.07,0.00,25.01,29.16,31.52,9.30,37.10,997.55,2032.65,3431.15,3300.49,3583.64,499.82,483.93,2.14,0000 0000 0000 0000 000000
2014-09-03 11:26:08,0.04,0.07,0.00,25.00,29.18,31.53,9.23,37.15,997.52,2032.53,3430.50,3300.01,3583.02,499.94,484.06,2.18,0000 0000 0000 0000 000000
2014-09-03 11:31:09,-0.01,0.07,0.00,25.02,29.20,31.54,9.24,37.11,997.46,2032.33,3429.83,3299.64,3582.79,500.12,484.32,2.22,0000 0000 0000 0000 000000
2014-09-03 11:36:11,0.01,0.07,0.00,25.03,29.21,31.56,9.31,37.07,997.23,2032.08,3429.05,3299.02,3582.04,500.08,484.02,2.26,0000 0000 0000 0000 000000
2014-09-03 11:41:12,0.04,0.07,0.00,25.03,29.22,31.57,9.34,36.99,997.10,2032.13,3428.50,3298.89,3581.75,500.13,483.85,2.30,0000 0000 0000 0000 000000
2014-09-03 11:46:13,0.02,0.07,0.00,25.05,29.25,31.59,9.30,37.00,997.09,2032.07,3427.84,3298.14,3581.06,499.87,483.73,2.35,0000 0000 0000 0000 000000
2014-09-03 11:51:14,0.04,0.07,0.00,25.06,29.25,31.60,9.29,37.07,997.09,2032.01,3427.01,3297.65,3580.35,499.68,483.49,2.39,0000 0000 0000 0000 000000
2014-09-03 11:56:15,0.03,0.08,0.00,25.06,29.27,31.61,9.33,37.02,997.10,2032.00,3426.15,3297.02,3579.87,500.09,483.88,2.43,0000 0000 0000 0000 000000
2014-09-03 12:01:16,0.04,0.08,0.00,25.06,29.28,31.62,9.34,37.08,997.09,2032.00,3425.53,3296.71,3579.08,500.17,483.78,2.47,0000 0000 0000 0000 000000
2014-09-03 12:06:17,0.03,0.08,0.00,25.06,29.30,31.63,9.38,37.12,997.09,2032.00,3424.90,3296.04,3578.72,500.34,484.22,2.51,0000 0000 0000 0000 000000
2014-09-03 12:11:18,0.03,0.08,0.00,25.07,29.31,31.65,9.30,36.98,997.09,2032.00,3424.08,3295.89,3578.04,499.89,483.57,2.56,0000 0000 0000 0000 000000
2014-09-03 12:16:19,0.05,0.08,0.00,25.05,29.32,31.66,9.29,36.88,997.00,2032.00,3423.49,3295.11,3577.69,499.81,483.58,2.60,0000 0000 0000 0000 000000
2014-09-03 12:21:21,0.02,0.08,0.00,25.07,29.32,31.67,9.26,36.82,996.74,2032.00,3422.87,3294.89,3577.03,500.41,484.00,2.64,0000 0000 0000 0000 000000
2014-09-03 12:26:22,0.04,0.08,0.00,25.06,29.35,31.68,9.29,36.93,996.76,2032.00,3422.06,3294.16,3576.58,499.98,483.91,2.68,0000 0000 0000 0000 000000
2014-09-03 12:31:23,0.02,0.09,0.00,25.07,29.35,31.70,9.29,37.05,996.79,2032.00,3421.41,3293.98,3576.01,499.66,483.48,2.72,0000 0000 0000 0000 000000
2014-09-03 12:36:24,0.04,0.09,0.00,25.09,29.36,31.70,9.24,37.04,996.62,2032.00,3420.95,3293.36,3575.51,499.84,483.33,2.76,0000 0000 0000 0000 000000
2014-09-03 12:41:25,0.02,0.09,0.00,25.11,29.37,31.72,9.26,36.96,996.65,2031.99,3420.11,3293.00,3574.97,499.71,483.36,2.81,0000 0000 0000 0000 000000
2014-09-03 12:46:26,0.05,0.09,0.00,25.10,29.37,31.72,9.36,36.93,996.62,2031.99,3419.49,3292.51,3574.24,500.13,483.75,2.85,0000 0000 0000 0000 000000
2014-09-03 12:51:27,0.02,0.09,0.00,25.10,29.38,31.71,9.25,36.91,996.68,2031.98,3418.82,3292.01,3573.88,499.81,483.31,2.89,0000 0000 0000 0000 000000
2014-09-03 12:56:28,0.03,0.09,0.00,25.09,29.40,31.72,9.31,36.88,996.80,2031.98,3418.04,3291.76,3573.12,499.76,483.29,2.93,0000 0000 0000 0000 000000
2014-09-03 13:01:29,0.02,0.09,0.00,25.11,29.40,31.73,9.23,36.67,996.79,2031.96,3417.64,3291.05,3572.95,499.93,483.48,2.97,0000 0000 0000 0000 000000
2014-09-03 13:06:30,0.02,0.10,0.00,25.12,29.40,31.74,9.27,36.68,996.61,2031.98,3416.99,3290.97,3572.30,500.10,483.78,3.02,0000 0000 0000 0000 000000
2014-09-03 13:11:32,0.04,0.10,0.00,25.11,29.42,31.76,9.25,36.71,996.61,2031.92,3416.17,3290.18,3571.84,499.97,483.59,3.06,0000 0000 0000 0000 000000
2014-09-03 13:16:33,0.02,0.10,0.00,25.11,29.42,31.75,9.29,36.91,996.61,2031.86,3415.57,3289.97,3571.06,500.02,483.56,3.10,0000 0000 0000 0000 000000
2014-09-03 13:21:34,0.03,0.10,0.00,25.13,29.42,31.76,9.33,36.92,996.61,2031.84,3415.00,3289.39,3570.86,499.98,483.25,3.14,0000 0000 0000 0000 000000
2014-09-03 13:26:35,0.04,0.10,0.00,25.12,29.43,31.76,9.30,36.83,996.61,2031.88,3414.40,3289.00,3570.18,499.90,483.46,3.18,0000 0000 0000 0000 000000
2014-09-03 13:31:36,-0.00,0.10,0.00,25.14,29.45,31.77,9.27,37.00,996.59,2031.66,3413.79,3288.66,3569.84,499.88,483.24,3.22,0000 0000 0000 0000 000000
2014-09-03 13:36:37,0.02,0.10,0.00,25.15,29.45,31.80,9.32,36.85,996.33,2031.45,3413.03,3288.04,3569.06,500.34,483.63,3.27,0000 0000 0000 0000 000000
2014-09-03 13:41:38,0.02,0.10,0.00,25.13,29.45,31.79,9.34,36.78,996.26,2031.47,3412.45,3287.96,3568.85,500.51,483.75,3.31,0000 0000 0000 0000 000000
2014-09-03 13:46:40,0.04,0.10,0.00,25.15,29.46,31.79,9.33,36.89,996.17,2031.38,3411.96,3287.24,3568.13,499.98,483.15,3.35,0000 0000 0000 0000 000000
2014-09-03 13:51:41,-0.00,0.11,0.00,25.15,29.47,31.80,9.34,36.90,996.41,2031.24,3411.18,3286.99,3567.98,500.11,483.48,3.39,0000 0000 0000 0000 000000
2014-09-03 13:56:42,0.03,0.11,0.00,25.16,29.47,31.82,9.36,36.72,996.56,2031.20,3410.82,3286.71,3567.28,500.51,483.84,3.43,0000 0000 0000 0000 000000
2014-09-03 14:01:43,0.02,0.11,0.00,25.15,29.47,31.81,9.24,36.56,996.60,2031.13,3410.05,3286.06,3566.97,500.15,483.58,3.47,0000 0000 0000 0000 000000
2014-09-03 14:06:44,0.03,0.11,0.00,25.13,29.47,31.82,9.31,36.55,996.60,2031.06,3409.46,3285.92,3566.29,500.12,483.59,3.52,0000 0000 0000 0000 000000
2014-09-03 14:11:45,0.02,0.11,0.00,25.13,29.48,31.82,9.29,36.60,996.60,2031.05,3409.01,3285.21,3566.00,499.99,483.44,3.56,0000 0000 0000 0000 000000